Location: Newark
(39.2833°N, 16.3333°E)
Time: 04:02:53
(UTC+00:00)

LightSail 2 - Pass Details

Date: 15 October 2019
Orbit: 700 x 727 km, 24.0° (Epoch: 17 November)

Event Time Altitude Azimuth Distance (km) Brightness Sun altitude
Rises 17:08:52 0° 231° (SW) 3,084 9.4 -10.9°
Reaches altitude 10° 17:12:27 10° 206° (SSW) 2,172 8.0 -11.6°
Maximum altitude 17:15:00 14° 176° (S) 1,928 7.4 -12.1°
Drops below altitude 10° 17:17:34 10° 146° (SE) 2,183 7.3 -12.6°
Enters shadow 17:18:44 - 136° (SE) 2,431 7.5 -12.8°
